THOR ABLESTAR DEB, 1511

Orbit data source: Space-Track

THOR ABLESTAR DEB, 1511 is space debris in LEO originally from a launch on Fri, 13 Aug 1965 UTC launched from the Air Force Western Test Range (AFWTR). Debris objects in space refer to the collection of defunct objects orbiting the Earth. Examples of debris include non-operational satellites, rocket bodies, and fragments generated from explosions, collisions, or faulty payload assembly.

Loading next visibility...
THOR ABLESTAR DEB details
Identifier
1511, 1965-065D
Orbit
LEO
Last TLE update6 hours ago
Origin
Flag of USNRL (US)
ManufacturerNRL
MissionSpacecraft
Bus & MotorUnknown
MassUnknown
Launch date (UTC)
1965-08-13 (59 years ago)
Launch vehicleUnknown
Launch site
Air Force Western Test Range (AFWTR)
Object type
Payload
Rocket body
Debris
Shape & HBRUnknown
Radar Cross Section0.550 m², Medium (>0.1 m² and < 1m²)

Expand to show TLE details & history

TLE from 6 hours ago
0 THOR ABLESTAR DEB
1  1511U 65065D   25023.51729897  .00000108  00000-0  19596-3 0  9992
2  1511  89.9648 212.1719 0068229 198.3937 216.2299 13.34144613893117
Epoch: 2025-01-23T12:24Z
Definitive object data (Epoch: 2025-01-23T12:24:54.63Z)
Latitude54.25725°
Longitude-97.10075°
Altitude1,181.63 km
Speed7.248 km/s
True Right ascension14h 08m 52s
True Declination54° 06' 11"
Sunlit
Object was in daylight at TLE epoch
Visualization TLE readout
Latitude85.82264°
Longitude82.37029°
Altitude1,156.669 km
Speed7.276 km/s
Apparent Right ascension06h 49m 28s
Apparent Declination34° 06' 34"
Sunlit
Object is in daylight
Visualization observer readout
Local Sidereal Time19:13:49
Azimuth5.234° NNE
Elevation-15.761°
Doppler factor1
Orbital elements
Apogee altitude1,179.459 km
Perigee altitude1,077.028 km
Semi-major axis7,506.381 km
Eccentricity0.0068229
Inclination89.9648°
RAAN212.1719°
Arg. of periapsis198.3937°
True anomaly215.77097°
Mean anomaly216.2299°
Eccentric anomaly216.00012°
Mean motion3.33732 °/min
BSTAR0.00019596
Orbital period107.87 mins
Loading maneuver chart data...
Loading historical data...
Loading historical data...
Loading historical data...
Loading historical data...
Loading historical data...
Loading historical data...
Loading historical data...

THOR ABLESTAR DEB Visibility forecast

Observer location: undefined°, undefined

Span
Click to sort rows by Start time (UTC) header in descending order
Start Az.
Max El. time (UTC)
Max El. Az.
Max El.
End time (UTC)
End Az.
9 mins2025-01-23 23:34:00.130Z33.319° NE2025-01-23 23:38:00.130Z74.157° E22.546°2025-01-23 23:43:00.130Z128.332° SE
11 mins2025-01-24 01:21:00.130Z349.818° N2025-01-24 01:27:00.130Z264.183° W38.242°2025-01-24 01:32:00.130Z206.89° SW
10 mins2025-01-24 11:41:00.130Z122.786° SE2025-01-24 11:45:00.130Z78.105° E26.668°2025-01-24 11:51:00.130Z19.105° NNE
12 mins2025-01-24 13:27:00.130Z204.274° SW2025-01-24 13:33:00.130Z283.999° WNW36.338°2025-01-24 13:39:00.130Z345.328° N
|